Location: Unspecified
(0.0000°N, 0.0000°E)
Time: 05:35:03
(UTC+00:00)

Transit 4B - Visible Passes

Search period start: 14 May 2026 00:00
Search period end: 24 May 2026 00:00
Orbit: 947 x 1097 km, 32.4° (Epoch: 13 May)

Date Brightness Start Highest point End Pass type
(mag) Time Alt. Az. Time Alt. Az. Time Alt. Az.
14 May 11.2 05:32:15 10° N 05:36:36 17° NNE 05:40:55 10° ENE visible
14 May 8.8 18:46:48 10° SW 18:52:50 43° SE 18:57:49 15° E visible
14 May 9.7 20:39:02 10° WSW 20:43:28 36° WNW 20:43:28 36° WNW visible
15 May 8.5 19:26:15 10° WSW 19:32:39 81° NW 19:36:50 24° NE visible
15 May 10.9 21:20:44 10° WNW 21:22:29 15° WNW 21:22:29 15° WNW visible
16 May 11.1 04:59:00 10° NNW 05:04:01 20° NNE 05:09:01 10° ENE visible
16 May 8.7 18:14:04 10° SW 18:20:17 53° SE 18:26:33 10° ENE visible
16 May 9.8 20:06:47 10° W 20:12:31 35° NNW 20:15:58 21° NNE visible
17 May 11.4 03:49:36 10° NNE 03:51:00 11° NNE 03:52:24 10° NE visible
17 May 8.8 18:53:45 10° WSW 19:00:05 66° NW 19:06:31 10° NE visible
17 May 10.9 20:49:00 10° WNW 20:52:40 15° NNW 20:55:08 13° N visible
18 May 10.8 04:25:53 10° NNW 04:31:24 23° NNE 04:36:57 10° E visible
18 May 10.2 19:34:35 10° W 19:39:59 28° NNW 19:45:28 10° NNE visible
19 May 11.2 03:15:31 10° N 03:18:29 13° NNE 03:21:27 10° NE visible
19 May 9.7 05:04:30 10° NW 05:11:26 50° NE 05:18:23 10° ESE visible
19 May 9.3 18:21:18 10° WSW 18:27:31 54° NW 18:33:46 10° NE visible
19 May 11.1 20:17:37 10° NW 20:20:11 12° NNW 20:22:47 10° N visible
20 May 10.5 03:52:51 10° NNW 03:58:46 28° NNE 04:04:45 10° E visible
20 May 10.6 19:02:30 10° W 19:07:28 23° NNW 19:12:28 10° NNE visible
21 May 11.0 02:43:13 12° N 02:45:56 15° NNE 02:49:50 10° ENE visible
21 May 9.3 04:31:42 10° NW 04:38:44 60° NE 04:45:51 10° ESE visible
22 May 10.1 03:22:20 20° NNW 03:26:06 33° NNE 03:32:25 10° E visible
22 May 8.8 05:11:29 10° WNW 05:18:35 65° SW 05:25:46 10° SE visible
22 May 10.9 18:30:31 10° WNW 18:34:57 19° NNW 18:39:24 10° NNE visible
23 May 11.1 02:15:51 15° NE 02:15:51 15° NE 02:17:57 10° ENE visible
23 May 8.9 04:01:31 24° NW 04:06:01 71° NE 04:13:14 10° ESE visible
